Location: Champseau
(45.8333°N, 1.7667°E)
Time: 19:01:56
(UTC+00:00)

STRAND 1 - Pass Details

Date: 28 November 2021
Orbit: 768 x 780 km, 98.4° (Epoch: 23 January)

Event Time Altitude Azimuth Distance (km) Brightness Sun altitude
Rises 04:19:03 0° 107° (ESE) 3,256 ? -29.2°
Reaches altitude 10° 04:22:44 10° 80° (E) 2,330 ? -28.6°
Maximum altitude 04:24:51 13° 55° (NE) 2,153 ? -28.2°
Drops below altitude 10° 04:26:57 10° 31° (NNE) 2,333 ? -27.8°
Sets 04:30:38 0° 3° (N) 3,263 ? -27.2°
